Location: Brachbach
(49.1847°N, 9.7240°E)
Time: 14:24:54
(UTC+00:00)

Nimbus 7 Rocket - Pass Details

Date: 12 August 2024
Orbit: 921 x 965 km, 99.4° (Epoch: 14 September)

Event Time Altitude Azimuth Distance (km) Brightness Sun altitude
Rises 00:26:44 0° 15° (NNE) 3,596 8.9 -24.6°
Reaches altitude 10° 00:29:11 10° 15° (NNE) 2,643 7.8 -24.4°
Maximum altitude 00:35:05 84° 288° (WNW) 936 4.3 -24.2°
Enters shadow 00:36:27 55° 208° (SSW) 1,096 4.4 -24.1°
